Regional Weather Roundup
Issued by NWS

Home | Current Version | Previous Version | Text Only | Print | Product List | Glossary Off
Versions: 1 2 3 4 5 6 7 8 9 10 11 12 13 14 15 16 17 18 19 20 21 22 23 24 25 26 27 28 29 30 31 32 33 34 35 36 37 38 39 40 41 42 43 44 45 46 47 48 49 50

000
ASUS43 KDTX 250110
RWRMI
MICHIGAN HOURLY REGIONAL WEATHER ROUNDUP
NATIONAL WEATHER SERVICE DETROIT/PONTIAC MI
900 PM EDT FRI APR 24 2015

NOTE: "FAIR" INDICATES FEW OR NO CLOUDS BELOW 12,000 FEET WITH NO
SIGNIFICANT WEATHER AND/OR OBSTRUCTION TO VISIBILITY.

MIZ047>049-052>055-059>063-066>070-074>076-081>083-250200-
SOUTHEAST LOWER MICHIGAN

CITY           SKY/WX    TMP DP  RH WIND       PRES   REMARKS
ADRIAN         MOCLDY    53  27  36 CALM      29.96S
ALMA           MOCLDY    48  31  52 CALM      29.97S
ANN ARBOR      MOCLDY    51  19  28 NE5       29.97S
BAD AXE        CLEAR     32  22  64 CALM      30.04S
CARO           CLEAR     39  30  70 CALM      30.00R
DETROIT CITY   CLEAR     46  29  51 E7        29.99S
DETROIT        PTCLDY    48  35  60 E6        29.99R
FLINT          CLEAR     48  21  34 CALM      29.99S
GROSSE ILE     PTCLDY    43  30  61 E6        29.98S
HILLSDALE      CLOUDY    53  24  31 CALM      29.96R
HOWELL         MOCLDY    49  20  32 CALM      29.97F

CITY           SKY/WX    TMP DP  RH WIND       PRES   REMARKS
JACKSON        CLOUDY    51  22  31 E6        29.96S
LAMBERTVILLE   MOCLDY    50  34  53 E3        29.98R
LANSING        CLOUDY    49  25  39 NE5       29.97S
LAPEER         FAIR      42  24  49 E6        30.00R
MASON          CLOUDY    50  23  35 NE3       29.96S
MONROE         PTCLDY    45  37  76 E8        29.97S
PONTIAC        CLOUDY    47  19  33 NE5       29.98S
PORT HOPE        N/A     35  23  61 E8        30.02F WCI  29
PORT HURON     CLEAR     34  27  75 NE6       30.03R WCI  29
TRI CITIES     PTCLDY    44  35  70 NE14      30.00R
TROY           CLEAR     49  18  29 E6        30.01S
SAGINAW HB     PTCLDY    45  27  49 NE3       29.99R
$$
MIZ043>046-050>051-056>058-064>065-071>073-077>080-250200-
SOUTHWEST LOWER MICHIGAN

CITY           SKY/WX    TMP DP  RH WIND       PRES   REMARKS
BATTLE CREEK   CLOUDY    56  20  24 NE5       29.97R
BENTON HARBOR  CLOUDY    46  31  55 NE6       29.95F
BIG RAPIDS     CLOUDY    49  22  33 N6        29.96S
COLDWATER      CLOUDY    52  25  34 W9        29.96R
FREMONT        MOCLDY    48  12  23 N7        29.97F
HOLLAND        CLOUDY    51  26  37 W10       29.99R
GRAND RAPIDS   CLOUDY    51  22  31 N6        29.96F
IONIA          CLOUDY    51  24  34 N3        29.95F
KALAMAZOO      CLOUDY    54  25  32 NW12      29.98R
LUDINGTON      CLOUDY    43  20  40 CALM      29.99F
MARSHALL       CLOUDY    53  24  32 CALM      29.96R
MOUNT PLEASANT MOCLDY    48  19  31 N3        29.98R
MUSKEGON       CLOUDY    49  20  31 CALM      29.98F
SOUTH HAVEN    RAIN      42  35  75 N7        30.00R
$$
MIZ016>042-250200-
NORTHERN LOWER MICHIGAN

CITY           SKY/WX    TMP DP  RH WIND       PRES   REMARKS
ALPENA         CLEAR     35  16  45 N7        30.02F WCI  29
BEAVER ISLAND  MOCLDY    33  19  54 W3        30.04R
BELLAIRE       MOCLDY    41  15  33 CALM      30.02S
CADILLAC       CLOUDY    41  17  37 N3        29.98S
CHARLEVOIX     MOCLDY    36  21  54 CALM      30.06S
FRANKFORT      CLOUDY    44  13  29 E5        30.01S
GAYLORD        MOCLDY    39  14  36 CALM      30.00S
GRAYLING       CLOUDY    39  15  37 CALM      30.00S
HARBOR SPRINGS PTCLDY    31  23  70 S6        30.03S WCI  26
HOUGHTON LAKE  CLOUDY    42  10  27 N3        29.99S
MANISTEE       CLOUDY    45  18  33 NE6       30.00F
OSCODA         CLEAR     34  23  65 E5        30.03S WCI  30
PELLSTON       PTCLDY    37  17  44 NW5       30.04F WCI  33
ROGERS CITY    CLEAR     35  23  63 N6        30.05S WCI  30
TRAVERSE CITY  CLOUDY    40  19  43 NE3       30.02S
$$
MIZ007>008-015-250200-
EASTERN UPPER MICHIGAN

CITY           SKY/WX    TMP DP  RH WIND       PRES   REMARKS
KINROSS        CLEAR     30  19  64 NW6       30.05R WCI  24
MACKINAC ISLAN CLEAR     34  22  62 N3        30.04F
NEWBERRY       CLEAR     33  15  48 CALM      30.04S
S. S. MARIE    CLEAR     30  18  60 W6        30.04R WCI  24
MUNISING         N/A     34  23  64 NE7       30.04S WCI  28
$$
MIZ004>006-011>014-085-250200-
CENTRAL UPPER MICHIGAN

CITY           SKY/WX    TMP DP  RH WIND       PRES   REMARKS
MANISTIQUE     PTCLDY    33  28  83 CALM      30.03S
ESCANABA       CLOUDY    37  27  65 CALM      30.02F
MENOMINEE      CLOUDY    39  23  52 SE8       30.00F WCI  34
SAWYER-GWINN   PTCLDY    36  14  41 NE7       30.01R WCI  30
$$
MIZ001>003-009>011-084-250200-
WESTERN UPPER MICHIGAN

CITY           SKY/WX    TMP DP  RH WIND       PRES   REMARKS
IRON MOUNTAIN  CLOUDY    41  23  48 SE7       29.97R
HOUGHTON       CLOUDY    32  24  72 E9        30.01S WCI  24
COPPER HARBOR    N/A     33  22  63 SW6       30.04R WCI  28
IRONWOOD       CLOUDY    39  34  81 CALM      29.93S
$$

ABBREVIATIONS USED IN REMARKS
   TC - TEMPERATURE IN CELSIUS
  WCI - WIND CHILL INDEX
   HX - HEAT INDEX
  VSB - VISIBILITY




USA.gov is the U.S. government's official web portal to all federal, state and local government web resources and services.